| time (UTC) | temp F | wind direction | speed MPH | gust MPH | rain 1hr in | rain 24hr in | rain mn in | humidity % | barometer mb |
| 20260831063031 | 81 | 0 | 0.0 | 1.0 | 0.00 | 0.00 | 0.00 | 91 | 1016.8 |
| 20260831061536 | 81 | 105 | 0.0 | 1.0 | 0.00 | 0.00 | 0.00 | 91 | 1017.0 |
| 20260831060036 | 82 | 0 | 0.0 | 3.0 | 0.00 | 0.00 | 0.00 | 90 | 1017.3 |
| 20260831054534 | 83 | 0 | 1.0 | 5.0 | 0.00 | 0.00 | 0.00 | 88 | 1017.7 |
| 20260831053034 | 83 | 71 | 1.0 | 5.0 | 0.00 | 0.00 | 0.00 | 88 | 1017.9 |
| 20260831051547 | 82 | 75 | 0.0 | 3.0 | 0.00 | 0.00 | 0.00 | 88 | 1018.0 |
| 20260831050037 | 82 | 44 | 0.0 | 4.0 | 0.00 | 0.00 | 0.00 | 87 | 1018.1 |
| 20260831044537 | 82 | 94 | 0.0 | 2.0 | 0.00 | 0.00 | 0.00 | 87 | 1018.1 |
| 20260831043039 | 82 | 94 | 0.0 | 3.0 | 0.00 | 0.00 | 0.00 | 87 | 1018.2 |
| 20260831041535 | 82 | 96 | 0.0 | 4.0 | 0.00 | 0.00 | 0.00 | 88 | 1018.6 |
| 20260831040043 | 82 | 75 | 0.0 | 3.0 | 0.00 | 0.00 | 0.00 | 88 | 1018.7 |
| 20260831034533 | 82 | 65 | 0.0 | 2.0 | 0.00 | 0.00 | 0.00 | 88 | 1018.8 |
| 20260831033033 | 82 | 67 | 1.0 | 5.0 | 0.00 | 0.00 | 0.00 | 89 | 1018.7 |
| 20260831031535 | 82 | 109 | 0.0 | 2.0 | 0.00 | 0.00 | 0.00 | 89 | 1018.6 |
| 20260831030032 | 82 | 23 | 1.0 | 4.0 | 0.00 | 0.00 | 0.00 | 90 | 1018.7 |
| 20260831024535 | 81 | 0 | 0.0 | 2.0 | 0.00 | 0.00 | 0.00 | 90 | 1018.8 |
| 20260831023040 | 81 | 51 | 0.0 | 3.0 | 0.00 | 0.00 | 0.00 | 90 | 1018.8 |
| 20260831021551 | 81 | 0 | 0.0 | 1.0 | 0.00 | 0.00 | 0.00 | 90 | 1018.7 |
| 20260831020033 | 81 | 0 | 0.0 | 6.0 | 0.00 | 0.00 | 0.00 | 90 | 1018.6 |
| 20260831014534 | 81 | 4 | 1.0 | 7.0 | 0.00 | 0.00 | 0.00 | 89 | 1018.4 |
| 20260831013037 | 81 | 348 | 1.0 | 6.0 | 0.00 | 0.00 | 0.00 | 89 | 1018.6 |
| 20260831011539 | 81 | 19 | 1.0 | 8.0 | 0.00 | 0.00 | 0.00 | 88 | 1018.7 |
| 20260831010053 | 82 | 15 | 0.0 | 7.0 | 0.00 | 0.00 | 0.00 | 86 | 1018.7 |
| 20260831004539 | 82 | 0 | 0.0 | 3.0 | 0.00 | 0.00 | 0.00 | 85 | 1018.4 |
| 20260831003036 | 82 | 35 | 0.0 | 3.0 | 0.00 | 0.00 | 0.00 | 84 | 1018.2 |
| 20260831001549 | 82 | 305 | 0.0 | 4.0 | 0.00 | 0.00 | 0.00 | 85 | 1018.2 |
| 20260831000034 | 82 | 301 | 0.0 | 3.0 | 0.00 | 0.00 | 0.00 | 86 | 1018.1 |
| 20260830234536 | 81 | 48 | 0.0 | 2.0 | 0.00 | 0.00 | 0.00 | 89 | 1018.1 |
| 20260830233033 | 81 | 79 | 0.0 | 1.0 | 0.00 | 0.00 | 0.00 | 89 | 1017.7 |
| 20260830231537 | 82 | 79 | 0.0 | 3.0 | 0.00 | 0.00 | 0.00 | 88 | 1017.3 |
| 20260830230038 | 83 | 0 | 1.0 | 6.0 | 0.00 | 0.00 | 0.00 | 82 | 1017.6 |
| 20260830224544 | 84 | 51 | 1.0 | 7.0 | 0.00 | 0.00 | 0.00 | 84 | 1017.5 |
| 20260830223034 | 84 | 319 | 0.0 | 5.0 | 0.00 | 0.00 | 0.00 | 83 | 1017.6 |
| 20260830221535 | 85 | 0 | 0.0 | 5.0 | 0.00 | 0.00 | 0.00 | 82 | 1017.9 |
| 20260830220036 | 85 | 307 | 2.0 | 7.0 | 0.00 | 0.00 | 0.00 | 81 | 1017.8 |
| 20260830214536 | 85 | 289 | 1.0 | 6.0 | 0.00 | 0.00 | 0.00 | 81 | 1017.9 |
| 20260830213034 | 85 | 5 | 2.0 | 6.0 | 0.00 | 0.00 | 0.00 | 81 | 1017.9 |
| 20260830211536 | 87 | 328 | 1.0 | 9.0 | 0.00 | 0.00 | 0.00 | 77 | 1017.8 |
| 20260830210036 | 88 | 105 | 2.0 | 7.0 | 0.00 | 0.00 | 0.00 | 76 | 1017.4 |
| 20260830204533 | 88 | 134 | 3.0 | 7.0 | 0.00 | 0.00 | 0.00 | 76 | 1017.4 |
| 20260830203034 | 90 | 127 | 4.0 | 7.0 | 0.00 | 0.00 | 0.00 | 73 | 1017.5 |
| 20260830201535 | 91 | 129 | 3.0 | 7.0 | 0.00 | 0.00 | 0.00 | 71 | 1017.6 |
| 20260830200037 | 91 | 136 | 2.0 | 6.0 | 0.00 | 0.00 | 0.00 | 72 | 1018.0 |
| 20260830194535 | 91 | 131 | 2.0 | 8.0 | 0.00 | 0.02 | 0.00 | 71 | 1017.7 |
| 20260830193035 | 90 | 198 | 4.0 | 10.0 | 0.00 | 0.02 | 0.00 | 74 | 1017.8 |
| 20260830191534 | 90 | 150 | 4.0 | 13.0 | 0.00 | 0.02 | 0.00 | 75 | 1017.8 |
| 20260830190035 | 89 | 145 | 8.0 | 13.0 | 0.00 | 0.02 | 0.00 | 74 | 1018.0 |
| 20260830184534 | 91 | 144 | 5.0 | 10.0 | 0.00 | 0.10 | 0.00 | 73 | 1017.9 |
| 20260830183034 | 90 | 117 | 3.0 | 10.0 | 0.00 | 0.10 | 0.00 | 75 | 1017.9 |
| 20260830181541 | 90 | 126 | 3.0 | 12.0 | 0.00 | 0.10 | 0.00 | 73 | 1018.2 |
| 20260830180051 | 91 | 146 | 6.0 | 10.0 | 0.00 | 0.10 | 0.00 | 71 | 1018.4 |
| 20260830174536 | 91 | 143 | 3.0 | 10.0 | 0.00 | 0.11 | 0.00 | 72 | 1018.7 |
| 20260830173054 | 91 | 75 | 4.0 | 9.0 | 0.00 | 0.11 | 0.00 | 72 | 1018.5 |
| 20260830171543 | 91 | 143 | 3.0 | 9.0 | 0.00 | 0.11 | 0.00 | 73 | 1019.0 |
| 20260830170037 | 90 | 102 | 3.0 | 10.0 | 0.00 | 0.11 | 0.00 | 75 | 1019.0 |
| 20260830164533 | 89 | 105 | 4.0 | 11.0 | 0.00 | 0.12 | 0.00 | 76 | 1019.1 |
| 20260830163034 | 88 | 98 | 3.0 | 12.0 | 0.00 | 0.12 | 0.00 | 80 | 1019.3 |
| 20260830161538 | 89 | 89 | 3.0 | 11.0 | 0.00 | 0.12 | 0.00 | 79 | 1019.4 |
| 20260830160034 | 89 | 82 | 4.0 | 10.0 | 0.00 | 0.12 | 0.00 | 78 | 1019.7 |
| 20260830154533 | 89 | 124 | 1.0 | 8.0 | 0.00 | 0.12 | 0.00 | 73 | 1019.7 |
| 20260830153034 | 89 | 127 | 4.0 | 9.0 | 0.00 | 0.12 | 0.00 | 73 | 1019.8 |
| 20260830151533 | 89 | 115 | 2.0 | 5.0 | 0.00 | 0.12 | 0.00 | 77 | 1019.6 |
| 20260830150035 | 87 | 153 | 4.0 | 9.0 | 0.00 | 0.12 | 0.00 | 80 | 1019.7 |
| 20260830144536 | 87 | 147 | 2.0 | 10.0 | 0.00 | 0.18 | 0.00 | 81 | 1019.9 |
| 20260830143033 | 88 | 148 | 2.0 | 9.0 | 0.00 | 0.18 | 0.00 | 78 | 1019.8 |
| 20260830141533 | 89 | 110 | 1.0 | 5.0 | 0.00 | 0.18 | 0.00 | 76 | 1019.8 |
| 20260830140034 | 86 | 0 | 1.0 | 3.0 | 0.00 | 0.18 | 0.00 | 76 | 1019.7 |
| 20260830134542 | 85 | 218 | 2.0 | 7.0 | 0.00 | 0.18 | 0.00 | 75 | 1019.8 |
| 20260830133038 | 86 | 160 | 4.0 | 13.0 | 0.00 | 0.18 | 0.00 | 79 | 1019.5 |
| 20260830131538 | 88 | 143 | 0.0 | 9.0 | 0.00 | 0.18 | 0.00 | 79 | 1019.3 |
| 20260830130035 | 87 | 94 | 0.0 | 8.0 | 0.00 | 0.18 | 0.00 | 80 | 1019.2 |
| 20260830124534 | 86 | 127 | 1.0 | 4.0 | 0.00 | 0.25 | 0.00 | 84 | 1019.2 |
| 20260830123034 | 85 | 151 | 2.0 | 8.0 | 0.00 | 0.25 | 0.00 | 83 | 1019.2 |
| 20260830121536 | 86 | 0 | 1.0 | 6.0 | 0.00 | 0.25 | 0.00 | 83 | 1018.9 |
| 20260830120034 | 85 | 0 | 0.0 | 3.0 | 0.00 | 0.25 | 0.00 | 85 | 1018.8 |
| 20260830114546 | 83 | 88 | 0.0 | 1.0 | 0.00 | 0.25 | 0.00 | 87 | 1018.8 |
| 20260830113034 | 83 | 0 | 0.0 | 4.0 | 0.00 | 0.25 | 0.00 | 87 | 1018.5 |
| 20260830111532 | 83 | 105 | 0.0 | 6.0 | 0.00 | 0.25 | 0.00 | 87 | 1018.1 |
| 20260830110034 | 83 | 123 | 0.0 | 4.0 | 0.00 | 0.25 | 0.00 | 87 | 1018.0 |
| 20260830104534 | 83 | 0 | 1.0 | 4.0 | 0.00 | 0.25 | 0.00 | 88 | 1017.5 |
| 20260830103032 | 83 | 120 | 1.0 | 7.0 | 0.00 | 0.25 | 0.00 | 88 | 1017.3 |
| 20260830101535 | 83 | 0 | 0.0 | 7.0 | 0.00 | 0.25 | 0.00 | 88 | 1017.1 |
| 20260830100031 | 83 | 115 | 1.0 | 3.0 | 0.00 | 0.25 | 0.00 | 89 | 1017.0 |
| 20260830094534 | 83 | 0 | 1.0 | 6.0 | 0.00 | 0.25 | 0.00 | 87 | 1017.1 |
| 20260830093042 | 83 | 87 | 2.0 | 7.0 | 0.00 | 0.25 | 0.00 | 87 | 1017.0 |
| 20260830091534 | 83 | 117 | 1.0 | 6.0 | 0.00 | 0.25 | 0.00 | 87 | 1017.2 |
| 20260830090040 | 83 | 84 | 1.0 | 7.0 | 0.00 | 0.25 | 0.00 | 86 | 1017.4 |
| 20260830084534 | 83 | 137 | 1.0 | 8.0 | 0.00 | 0.25 | 0.00 | 86 | 1017.5 |
| 20260830083033 | 83 | 132 | 1.0 | 8.0 | 0.00 | 0.25 | 0.00 | 86 | 1017.4 |
| 20260830081534 | 83 | 75 | 1.0 | 7.0 | 0.00 | 0.25 | 0.00 | 84 | 1017.5 |
| 20260830080032 | 83 | 94 | 1.0 | 12.0 | 0.00 | 0.25 | 0.00 | 84 | 1017.7 |
| 20260830074550 | 83 | 120 | 1.0 | 7.0 | 0.00 | 0.25 | 0.00 | 85 | 1017.8 |
| 20260830073032 | 83 | 97 | 3.0 | 9.0 | 0.00 | 0.25 | 0.00 | 86 | 1017.7 |
| 20260830071540 | 83 | 93 | 2.0 | 8.0 | 0.00 | 0.25 | 0.00 | 86 | 1017.8 |
| 20260830070033 | 83 | 104 | 0.0 | 8.0 | 0.00 | 0.25 | 0.00 | 86 | 1018.0 |
| 20260830064539 | 83 | 86 | 0.0 | 5.0 | 0.00 | 0.25 | 0.00 | 85 | 1018.1 |